EW7164 Weather Reports


time (UTC)temp
C
wind
direction
speed
KPH
gust
KPH
rain 1hr
cm
rain 24hr
cm
rain mn
cm
humidity
%
barometer
mb
20260906105026 10 316 16.1 27.4 0.00 0.03 0.00 86 1014.1
20260906104027 10 328 14.5 20.9 0.00 0.03 0.00 87 1014.0
20260906103028 10 316 9.7 17.7 0.00 0.03 0.00 87 1013.9
20260906102126 10 311 14.5 19.3 0.00 0.03 0.00 87 1013.9
20260906101128 10 308 14.5 17.7 0.00 0.03 0.00 87 1013.8
20260906100127 10 314 11.3 14.5 0.00 0.03 0.00 88 1013.9
20260906094128 10 307 11.3 16.1 0.00 0.03 0.00 89 1013.8
20260906094027 10 312 12.9 17.7 0.00 0.03 0.00 89 1013.7
20260906093126 10 313 11.3 14.5 0.00 0.03 0.00 89 1013.7
20260906092128 10 315 14.5 24.1 0.00 0.03 0.00 89 1013.7
20260906092026 10 311 14.5 17.7 0.00 0.03 0.00 89 1013.5
20260906085028 10 302 12.9 17.7 0.00 0.03 0.00 88 1013.6
20260906084027 10 297 12.9 17.7 0.00 0.03 0.00 87 1013.6
20260906083125 10 310 14.5 20.9 0.00 0.03 0.00 86 1013.5
20260906081142 10 315 12.9 14.5 0.00 0.03 0.00 86 1013.7
20260906075228 10 308 12.9 16.1 0.00 0.03 0.00 87 1013.5
20260906074226 10 309 11.3 14.5 0.00 0.03 0.00 87 1013.7
20260906073227 10 315 9.7 12.9 0.00 0.03 0.00 86 1013.7
20260906072228 10 315 9.7 11.3 0.00 0.03 0.00 87 1013.7
20260906071229 11 310 9.7 11.3 0.00 0.03 0.00 86 1013.6
20260906070226 11 336 4.8 6.4 0.00 0.03 0.00 85 1013.6
20260906065227 11 321 11.3 14.5 0.00 0.03 0.00 85 1013.6
20260906063228 11 320 8.0 12.9 0.00 0.03 0.00 82 1013.6
20260906061227 11 343 6.4 11.3 0.00 0.03 0.00 81 1013.7
20260906060227 11 2 6.4 9.7 0.00 0.03 0.00 81 1013.7
20260906055227 11 321 9.7 12.9 0.00 0.03 0.00 80 1013.7
20260906053226 12 331 11.3 17.7 0.00 0.03 0.00 79 1013.6
20260906053127 12 342 9.7 11.3 0.00 0.03 0.00 80 1013.6
20260906052126 12 2 14.5 20.9 0.00 0.03 0.00 79 1013.7
20260906051226 12 340 9.7 14.5 0.00 0.03 0.00 81 1013.9
20260906050227 12 335 9.7 14.5 0.00 0.03 0.00 80 1013.9
20260906045325 12 328 9.7 17.7 0.00 0.03 0.00 80 1013.9
20260906044327 12 343 11.3 17.7 0.00 0.03 0.00 81 1013.8
20260906043426 12 5 9.7 12.9 0.00 0.03 0.00 79 1013.7
20260906041425 13 344 9.7 16.1 0.00 0.03 0.00 77 1013.7
20260906034614 13 13 8.0 9.7 0.00 0.03 0.03 77 1013.7
20260906033617 13 22 11.3 14.5 0.00 0.03 0.03 77 1013.7
20260906032615 13 21 17.7 22.5 0.00 0.03 0.03 78 1013.6
20260906031618 13 7 16.1 25.7 0.00 0.03 0.03 78 1013.6
20260906025617 13 15 17.7 32.2 0.00 0.03 0.03 78 1013.8
20260906023815 14 5 14.5 19.3 0.00 0.03 0.03 77 1013.5
20260906022716 14 36 14.5 22.5 0.00 0.03 0.03 77 1013.5
20260906021717 14 19 14.5 22.5 0.00 0.03 0.03 79 1013.5
20260906020718 14 17 17.7 25.7 0.00 0.03 0.03 80 1013.3
20260906015716 14 22 12.9 19.3 0.00 0.03 0.03 80 1013.4
20260906014719 14 16 16.1 27.4 0.00 0.03 0.03 80 1013.7
20260906014616 14 10 11.3 17.7 0.00 0.03 0.03 80 1013.7
20260906013714 14 18 14.5 19.3 0.00 0.03 0.03 80 1013.7
20260906011717 14 34 11.3 16.1 0.00 0.03 0.03 80 1013.7
20260906010719 15 25 14.5 20.9 0.00 0.03 0.03 79 1013.7
20260906005815 15 47 17.7 24.1 0.00 0.03 0.03 78 1013.6
20260906004914 15 23 19.3 29.0 0.00 0.03 0.03 78 1013.8
20260906003915 15 36 14.5 24.1 0.00 0.03 0.03 77 1013.8
20260906003014 15 8 14.5 19.3 0.00 0.03 0.03 79 1013.9
20260906002014 15 4 14.5 20.9 0.00 0.03 0.03 81 1013.9
20260906001016 15 346 16.1 20.9 0.00 0.03 0.03 81 1013.9
20260905235914 15 338 12.9 19.3 0.00 0.03 0.03 80 1013.7
20260905235816 15 331 12.9 24.1 0.00 0.03 0.03 79 1013.8
20260905233918 15 3 12.9 19.3 0.00 0.03 0.03 80 1013.5
20260905233816 15 344 14.5 19.3 0.00 0.03 0.03 80 1013.6
20260905232817 15 329 14.5 22.5 0.00 0.03 0.03 80 1013.6
20260905231817 16 341 19.3 24.1 0.00 0.03 0.03 79 1013.4
20260905230916 16 340 12.9 22.5 0.00 0.03 0.03 76 1013.3
20260905225818 16 332 14.5 19.3 0.00 0.03 0.03 76 1013.1
20260905224915 16 30 14.5 22.5 0.00 0.03 0.03 75 1013.0
20260905223914 16 24 12.9 17.7 0.00 0.03 0.03 76 1012.9
20260905222915 16 32 20.9 25.7 0.00 0.03 0.03 76 1012.7
20260905221916 16 8 16.1 24.1 0.00 0.03 0.03 75 1012.7
20260905220917 16 44 22.5 33.8 0.00 0.03 0.03 74 1012.4
20260905215914 16 30 14.5 20.9 0.00 0.03 0.03 73 1012.4
20260905214915 16 19 17.7 27.4 0.00 0.03 0.03 77 1012.1
20260905213915 17 38 20.9 35.4 0.00 0.03 0.03 72 1011.8
20260905211915 17 11 12.9 19.3 0.00 0.03 0.03 72 1011.5
20260905211014 17 45 8.0 11.3 0.00 0.03 0.03 72 1011.6
20260905210017 17 25 12.9 19.3 0.00 0.03 0.03 72 1011.4
20260905204114 17 24 8.0 11.3 0.00 0.03 0.03 73 1011.2
20260905202116 17 25 19.3 25.7 0.00 0.03 0.03 74 1011.0
20260905201115 17 350 19.3 25.7 0.00 0.03 0.03 75 1011.1
20260905201015 17 332 16.1 25.7 0.00 0.03 0.03 75 1010.9
20260905200015 17 339 3.2 6.4 0.00 0.03 0.03 76 1010.9
20260905195015 17 343 11.3 14.5 0.00 0.03 0.03 79 1010.9
20260905194016 16 323 12.9 17.7 0.00 0.03 0.03 81 1011.0
20260905192015 17 21 20.9 29.0 0.00 0.03 0.03 76 1011.0
20260905191014 17 22 17.7 22.5 0.00 0.03 0.03 74 1011.1
20260905185114 17 15 24.1 35.4 0.00 0.03 0.03 75 1011.1
20260905184115 17 356 9.7 12.9 0.00 0.03 0.03 74 1010.7
20260905183214 18 322 12.9 16.1 0.03 0.03 0.03 72 1010.8
20260905182216 18 326 8.0 11.3 0.03 0.03 0.03 73 1010.7
20260905181314 17 338 9.7 14.5 0.03 0.03 0.03 79 1010.9
20260905180316 16 320 8.0 12.9 0.03 0.03 0.03 81 1011.1
20260905175415 16 4 9.7 12.9 0.03 0.03 0.03 82 1011.1
20260905173416 18 11 24.1 33.8 0.00 0.00 0.00 71 1011.0
20260905172417 19 350 16.1 25.7 0.00 0.00 0.00 67 1010.7
20260905171417 18 9 8.0 17.7 0.00 0.00 0.00 68 1010.8
20260905165517 18 342 19.3 25.7 0.00 0.00 0.00 68 1010.9
20260905164515 17 21 17.7 20.9 0.00 0.00 0.00 69 1011.0
20260905164416 17 34 14.5 19.3 0.00 0.00 0.00 70 1011.0
20260905164315 17 25 16.1 20.9 0.00 0.00 0.00 70 1010.8
20260905163316 17 1 17.7 33.8 0.00 0.00 0.00 71 1010.9
20260905162316 17 29 17.7 25.7 0.00 0.00 0.00 71 1010.9
20260905161315 18 5 19.3 30.6 0.00 0.00 0.00 68 1010.6
20260905160316 18 17 16.1 25.7 0.00 0.00 0.00 67 1010.7
20260905155416 17 18 16.1 22.5 0.00 0.00 0.00 69 1010.8
20260905154417 18 21 17.7 22.5 0.00 0.00 0.00 69 1010.5
20260905152415 18 19 19.3 27.4 0.00 0.00 0.00 69 1010.8
20260905150516 18 19 14.5 22.5 0.00 0.00 0.00 69 1010.6
20260905150417 18 18 19.3 29.0 0.00 0.00 0.00 70 1010.6
20260905145417 18 4 17.7 27.4 0.00 0.00 0.00 71 1010.6
20260905144514 17 350 12.9 19.3 0.00 0.00 0.00 73 1010.9
20260905142516 17 349 17.7 24.1 0.00 0.00 0.00 74 1010.7
20260905141615 16 18 8.0 19.3 0.00 0.00 0.00 75 1010.9
20260905140614 16 10 12.9 17.7 0.00 0.00 0.00 76 1010.9
20260905135617 16 12 19.3 25.7 0.00 0.00 0.00 77 1010.6
20260905134716 16 6 22.5 37.0 0.00 0.00 0.00 78 1010.6
20260905134614 16 14 16.1 22.5 0.00 0.00 0.00 78 1010.6
20260905133615 16 21 12.9 19.3 0.00 0.00 0.00 79 1010.7
20260905132615 16 9 14.5 25.7 0.00 0.00 0.00 79 1010.7
20260905131617 16 21 17.7 25.7 0.00 0.00 0.00 79 1010.5
20260905130714 16 1 16.1 22.5 0.00 0.00 0.00 77 1010.4
20260905125715 16 22 14.5 25.7 0.00 0.00 0.00 79 1010.4
20260905124716 16 14 14.5 19.3 0.00 0.00 0.00 80 1010.4
20260905123716 15 13 12.9 16.1 0.00 0.00 0.00 82 1010.3
20260905122716 15 358 9.7 20.9 0.00 0.00 0.00 82 1010.1
20260905120914 15 19 11.3 14.5 0.00 0.00 0.00 82 1010.2
20260905115915 15 22 16.1 20.9 0.00 0.00 0.00 81 1010.1
20260905114917 15 19 11.3 20.9 0.00 0.00 0.00 80 1009.9
20260905113916 16 11 16.1 24.1 0.00 0.00 0.00 79 1009.7
20260905112914 16 4 14.5 22.5 0.00 0.00 0.00 80 1009.6
20260905111915 16 347 12.9 17.7 0.00 0.00 0.00 81 1009.5
20260905110916 16 33 11.3 22.5 0.00 0.03 0.00 82 1009.5
20260905110014 16 39 16.1 22.5 0.00 0.03 0.00 82 1009.6